Miscellaneous Local Product
Issued by NWS North Platte, NE

Home | Current Version | Previous Version | Text Only | Print | Product List | Glossary On
Versions: 1 2 3 4 5 6 7 8 9 10 11 12 13 14 15 16 17 18 19 20 21 22 23 24 25 26 27 28 29 30 31 32 33 34 35 36 37 38 39 40 41 42 43 44 45 46 47 48 49 50
000
AXUS43 KLBF 021910
MISLBF


WESTERN AND NORTH CENTRAL NEBRASKA HOURLY WEATHER ROUNDUP
NATIONAL WEATHER SERVICE NORTH PLATTE NE
200 PM CDT TUE SEP 02 2014

***STATIONS NOT REPORTING VARIABLES SUCH AS SKY/WEATHER OR
PRESSURE ARE PROVIDED BY THE NEBRASKA DEPARTMENT OF
ROADS...RAWS...AND APRS NETWORKS...AND ARE NOT UNDER
NATIONAL WEATHER SERVICE QUALITY CONTROL***

...OBSERVATIONS IN AND NEAR THE EASTERN PANHANDLE OF NEBRASKA...

CITY           SKY/WX    TMP DP  RH WIND       PRES   REMARKS
PINE RIDGE       N/A    N/A N/A N/A MISG      29.92F
CHADRON        SUNNY     81  45  28 W14       29.92F
ALLIANCE       SUNNY     80  47  31 SW16      29.97F
SIDNEY         SUNNY     76  52  43 S14G20    30.04F
WHITECLAY        N/A     79  47  31 S10         N/A
RUSHVILLE        N/A     83  32  16 SW18        N/A
GORDON           N/A     82  45  26 NE71        N/A
CRESCENT LAKE    N/A     78  52  39 S13G20      N/A
LISCO            N/A     83  47  27 S12         N/A
BIG SPRINGS      N/A     75  61  62 SW8         N/A
$$

...OBSERVATIONS IN NORTH CENTRAL NEBRASKA...

CITY           SKY/WX    TMP DP  RH WIND       PRES   REMARKS
VALENTINE      SUNNY     80  45  28 SW13G22   29.94F
THEDFORD       SUNNY     79  54  42 S16G22    29.99F
AINSWORTH      SUNNY     77  48  35 SW10      29.97F
O`NEILL        SUNNY     79  54  42 SW10      29.97F
ORD            SUNNY     74  56  53 SW12      29.99F
BROKEN BOW     SUNNY     80  55  42 SW12      30.00F
SPRINGVIEW       N/A     79  50  36 SW9         N/A
ROSE             N/A     81  56  41 S9          N/A
NEWPORT          N/A     79  51  37 SW9         N/A
COMSTOCK         N/A     83  57  40 SW10        N/A
CHAMBERS         N/A     79  53  40 SE6         N/A
EWING            N/A     77  56  48 SW8         N/A
$$

...OBSERVATIONS IN SOUTHWEST NEBRASKA AND FAR NORTHEAST COLORADO...

CITY           SKY/WX    TMP DP  RH WIND       PRES   REMARKS
WRAY             N/A     82  57  42 S10G17    30.03F
HOLYOKE        FAIR      81  63  54 S16       30.01F
IMPERIAL       MOSUNNY   80  59  48 S14G24    30.01F
OGALLALA       SUNNY     76  59  55 S14       30.00F
NORTH PLATTE   MOSUNNY   77  62  59 SW12G17   30.00F
MCCOOK         SUNNY     83  57  41 S9        30.01F
LEXINGTON      SUNNY     78  60  53 S5        30.01F
PAXTON           N/A     71  62  73 S12         N/A
SUTHERLAND       N/A     77  64  64 S12         N/A
BRADY            N/A     77  63  61 CALM        N/A
GOTHENBURG       N/A     75  55  50 S8          N/A
CALLAWAY         N/A     75  66  73 SW9         N/A
$$

...SOME WEATHER OBSERVATIONS FROM AROUND THE REGION...

CITY           SKY/WX    TMP DP  RH WIND       PRES   REMARKS
DENVER         MOSUNNY   80  49  33 S6        30.06F
LARAMIE        SUNNY     72  26  18 W18G26    30.16F
CHEYENNE       SUNNY     76  37  24 SW9G17    30.09F
SCOTTSBLUFF    SUNNY     84  39  20 W10       29.97F
RAPID CITY     SUNNY     78  49  35 VRB6      29.89F
PIERRE         SUNNY     79  51  37 SW12      29.86F
WINNER         FAIR      80  52  37 S8        29.92F
SIOUX FALLS    MOSUNNY   74  55  51 W6        29.94F
OMAHA          MOSUNNY   78  55  44 VRB6      30.00R
GRAND ISLAND   SUNNY     80  57  45 SW12      30.01F
KANSAS CITY    PTSUNNY   79  67  66 VRB5      30.01F
WICHITA        MOSUNNY   85  67  54 S16       30.00F
HAYS           MOSUNNY   82  63  51 SE18      30.01F
LIBERAL        CLOUDY    79  63  57 NE9G16    30.05F
GOODLAND       SUNNY     82  51  34 S18       30.05F
$$



USA.gov is the U.S. government's official web portal to all federal, state and local government web resources and services.